"SCLK","SCET","ORBIT_NUMBER","ALTITUDE","LATITUDE_PLANEOGRAPHIC","LATITUDE_PLANETOCENTRIC","LOCAL_TRUE_SOLAR_TIME","WEST_LONGITUDE","X_SUN_DIR_DISTANCE","RHO_PRP_SUN_DISTANCE","SOLAR_ZENITH_ANGLE","ELECTRON_PLASMA_FREQUENCY","FPE_QUALITY","FPP_VERIFICATION","ELECTRON_PLASMA_DENSITY","ELECTRON_CYCLOTRON_PERIOD","FCP_QUALITY","B_MAGNITUDE"
"1/0362752873.30877",2014-10-30T12:41:17.294,13746,1486.00,61.22,60.99,"06:34:46",216.68,-0.730,1.230,120.71,,,,,3.82e+00,1,9.35e+00
"1/0362752881.00927",2014-10-30T12:41:24.837,13746,1475.00,61.51,61.28,"06:41:46",216.65,-0.730,1.230,120.57,,,,,3.88e+00,1,9.19e+00
"1/0362752896.06628",2014-10-30T12:41:39.924,13746,1454.00,62.09,61.86,"07:00:21",216.57,-0.720,1.230,120.30,,,,,4.02e+00,1,8.89e+00
"1/0362752918.47850",2014-10-30T12:42:02.553,13746,1422.00,62.97,62.75,"07:30:30",216.44,-0.710,1.220,119.87,,,,,3.94e+00,1,9.08e+00
"1/0362752926.17901",2014-10-30T12:42:10.096,13746,1412.00,63.27,63.04,"07:42:05",216.39,-0.700,1.220,119.73,,,,,4.02e+00,1,8.89e+00
"1/0362752933.53552",2014-10-30T12:42:17.640,13746,1401.00,63.56,63.34,"07:53:40",216.34,-0.700,1.220,119.58,,,,,4.12e+00,1,8.67e+00
"1/0362752941.23602",2014-10-30T12:42:25.183,13746,1391.00,63.86,63.64,"08:05:15",216.29,-0.690,1.220,119.44,,,,,4.15e+00,1,8.60e+00
"1/0362752948.59188",2014-10-30T12:42:32.726,13746,1380.00,64.16,63.94,"08:16:50",216.24,-0.690,1.220,119.29,,,,,4.10e+00,1,8.71e+00
"1/0362752956.29238",2014-10-30T12:42:40.269,13746,1370.00,64.46,64.24,"08:30:42",216.18,-0.680,1.220,119.14,,,,,3.95e+00,1,9.04e+00
"1/0362752963.64824",2014-10-30T12:42:47.812,13746,1359.00,64.76,64.55,"08:44:35",216.12,-0.680,1.220,118.99,,,,,3.95e+00,1,9.04e+00
"1/0362752971.34940",2014-10-30T12:42:55.356,13746,1349.00,65.07,64.85,"08:58:27",216.06,-0.670,1.220,118.84,,,,,4.00e+00,1,8.93e+00
"1/0362753001.46212",2014-10-30T12:43:25.528,13746,1307.00,66.29,66.08,"09:58:32",215.80,-0.650,1.210,118.22,3.90e+01,1,,1.89e+01,,,
"1/0362753009.16327",2014-10-30T12:43:33.072,13746,1297.00,66.60,66.40,"10:16:59",215.72,-0.650,1.210,118.06,4.30e+01,2,,2.29e+01,3.97e+00,1,9.00e+00
"1/0362753016.51913",2014-10-30T12:43:40.615,13746,1287.00,66.91,66.71,"10:35:27",215.64,-0.640,1.210,117.90,4.20e+01,2,,2.19e+01,4.10e+00,1,8.71e+00
"1/0362753024.21963",2014-10-30T12:43:48.158,13746,1277.00,67.23,67.02,"10:53:54",215.56,-0.640,1.210,117.74,4.30e+01,2,,2.29e+01,4.22e+00,1,8.47e+00
"1/0362753031.57549",2014-10-30T12:43:55.701,13746,1267.00,67.54,67.34,"11:12:21",215.48,-0.630,1.210,117.58,4.10e+01,1,,2.08e+01,,,
"1/0362753039.27665",2014-10-30T12:44:03.245,13746,1257.00,67.85,67.65,"11:33:06",215.39,-0.630,1.210,117.41,4.00e+01,1,,1.98e+01,,,
"1/0362753046.63251",2014-10-30T12:44:10.788,13746,1246.00,68.17,67.97,"11:53:51",215.30,-0.620,1.210,117.25,4.30e+01,2,,2.29e+01,,,
"1/0362753054.33301",2014-10-30T12:44:18.331,13746,1236.00,68.49,68.29,"12:14:36",215.21,-0.620,1.210,117.08,4.30e+01,2,,2.29e+01,,,
"1/0362753062.03351",2014-10-30T12:44:25.874,13746,1226.00,68.81,68.61,"12:37:39",215.11,-0.620,1.210,116.91,5.00e+01,2,,3.10e+01,,,
"1/0362753069.38937",2014-10-30T12:44:33.417,13746,1216.00,69.13,68.93,"13:02:59",215.00,-0.610,1.210,116.74,5.20e+01,2,,3.35e+01,,,
"1/0362753077.09053",2014-10-30T12:44:40.961,13746,1206.00,69.45,69.25,"13:26:01",214.90,-0.610,1.210,116.57,5.50e+01,2,,3.75e+01,,,
"1/0362753084.44639",2014-10-30T12:44:48.504,13746,1196.00,69.77,69.58,"13:53:38",214.78,-0.600,1.210,116.40,5.10e+01,2,,3.23e+01,,,
"1/0362753092.14689",2014-10-30T12:44:56.047,13746,1186.00,70.09,69.90,"14:18:58",214.67,-0.600,1.200,116.23,5.00e+01,2,,3.10e+01,4.67e+00,1,7.65e+00
"1/0362753099.50275",2014-10-30T12:45:03.590,13746,1177.00,70.42,70.23,"14:48:53",214.54,-0.590,1.200,116.05,4.90e+01,2,,2.98e+01,,,
"1/0362753107.20325",2014-10-30T12:45:11.133,13746,1167.00,70.74,70.56,"15:18:48",214.41,-0.590,1.200,115.88,5.00e+01,2,,3.10e+01,,,
"1/0362753114.55976",2014-10-30T12:45:18.677,13746,1157.00,71.07,70.89,"15:48:43",214.28,-0.580,1.200,115.70,5.10e+01,2,,3.23e+01,4.32e+00,1,8.27e+00
"1/0362753122.26026",2014-10-30T12:45:26.220,13746,1147.00,71.40,71.22,"16:20:56",214.14,-0.580,1.200,115.52,5.20e+01,2,,3.35e+01,4.13e+00,1,8.64e+00
"1/0362753129.61612",2014-10-30T12:45:33.763,13746,1137.00,71.73,71.55,"16:55:26",213.99,-0.570,1.200,115.34,5.50e+01,2,,3.75e+01,4.27e+00,1,8.37e+00
"1/0362753137.31662",2014-10-30T12:45:41.306,13746,1128.00,72.06,71.88,"17:32:13",213.83,-0.570,1.200,115.16,6.40e+01,2,,5.08e+01,,,
"1/0362753145.01712",2014-10-30T12:45:48.849,13746,1118.00,72.39,72.22,"18:09:01",213.67,-0.560,1.200,114.97,7.00e+01,2,,6.08e+01,4.30e+00,1,8.31e+00
"1/0362753152.37364",2014-10-30T12:45:56.393,13746,1108.00,72.72,72.55,"18:48:06",213.50,-0.550,1.200,114.79,7.70e+01,2,,7.35e+01,4.38e+00,1,8.15e+00
"1/0362753160.07414",2014-10-30T12:46:03.936,13746,1099.00,73.06,72.89,"19:29:28",213.32,-0.550,1.200,114.60,8.10e+01,2,,8.14e+01,4.38e+00,1,8.15e+00
"1/0362753167.43000",2014-10-30T12:46:11.479,13746,1089.00,73.39,73.23,"20:13:08",213.13,-0.540,1.200,114.41,8.60e+01,2,,9.17e+01,4.55e+00,1,7.85e+00
"1/0362753175.13050",2014-10-30T12:46:19.022,13746,1080.00,73.73,73.57,"20:59:06",212.93,-0.540,1.200,114.22,9.50e+01,2,,1.12e+02,4.62e+00,1,7.74e+00
"1/0362753182.48636",2014-10-30T12:46:26.565,13746,1070.00,74.07,73.91,"21:47:21",212.72,-0.530,1.190,114.03,9.00e+01,2,,1.00e+02,4.53e+00,1,7.88e+00
"1/0362753190.18752",2014-10-30T12:46:34.109,13746,1061.00,74.41,74.25,"22:37:53",212.50,-0.530,1.190,113.84,9.30e+01,2,,1.07e+02,4.48e+00,1,7.97e+00
"1/0362753197.54338",2014-10-30T12:46:41.652,13746,1052.00,74.75,74.59,"23:30:44",212.27,-0.520,1.190,113.65,1.00e+02,2,,1.24e+02,,,
"1/0362753205.24388",2014-10-30T12:46:49.195,13746,1042.00,75.09,74.94,"00:25:51",212.03,-0.520,1.190,113.45,1.02e+02,2,,1.29e+02,,,
"1/0362753212.59974",2014-10-30T12:46:56.738,13746,1033.00,75.43,75.28,"01:25:34",211.77,-0.510,1.190,113.25,1.02e+02,2,,1.29e+02,4.71e+00,1,7.57e+00
"1/0362753220.30024",2014-10-30T12:47:04.281,13746,1024.00,75.78,75.63,"02:27:34",211.50,-0.510,1.190,113.06,1.07e+02,2,,1.42e+02,,,
"1/0362753228.00139",2014-10-30T12:47:11.825,13746,1014.00,76.12,75.98,"03:34:09",211.21,-0.500,1.190,112.86,1.08e+02,2,,1.45e+02,,,
"1/0362753235.35725",2014-10-30T12:47:19.368,13746,1005.00,76.47,76.33,"04:45:19",210.90,-0.500,1.190,112.66,1.10e+02,2,,1.50e+02,4.50e+00,1,7.94e+00
"1/0362753243.05775",2014-10-30T12:47:26.911,13746,996.00,76.81,76.68,"06:01:04",210.57,-0.490,1.190,112.45,1.10e+02,2,,1.51e+02,4.71e+00,1,7.57e+00
"1/0362753250.41361",2014-10-30T12:47:34.454,13746,987.00,77.16,77.03,"07:19:07",210.23,-0.490,1.190,112.25,1.00e+02,2,,1.24e+02,4.48e+00,1,7.97e+00
"1/0362753258.11411",2014-10-30T12:47:41.997,13746,978.00,77.51,77.38,"08:44:02",209.86,-0.480,1.190,112.05,1.05e+02,2,,1.37e+02,4.57e+00,1,7.82e+00
"1/0362753265.47063",2014-10-30T12:47:49.541,13746,969.00,77.86,77.73,"10:13:32",209.47,-0.480,1.190,111.84,9.80e+01,2,,1.19e+02,4.42e+00,1,8.09e+00
"1/0362753273.17113",2014-10-30T12:47:57.084,13746,960.00,78.21,78.08,"11:49:55",209.05,-0.470,1.190,111.63,9.90e+01,2,,1.22e+02,4.38e+00,1,8.15e+00
"1/0362753280.52699",2014-10-30T12:48:04.627,13746,951.00,78.56,78.44,"13:33:10",208.60,-0.470,1.190,111.42,1.02e+02,2,,1.29e+02,4.38e+00,1,8.15e+00
"1/0362753288.22749",2014-10-30T12:48:12.170,13746,942.00,78.91,78.79,"15:23:18",208.12,-0.460,1.180,111.21,1.06e+02,2,,1.39e+02,,,
"1/0362753295.58335",2014-10-30T12:48:19.713,13746,933.00,79.26,79.14,"17:22:36",207.60,-0.460,1.180,111.00,1.12e+02,2,,1.56e+02,,,
"1/0362753303.28451",2014-10-30T12:48:27.257,13746,925.00,79.61,79.50,"19:28:46",207.05,-0.450,1.180,110.78,1.09e+02,2,,1.47e+02,4.55e+00,1,7.85e+00
"1/0362753310.64037",2014-10-30T12:48:34.800,13746,916.00,79.96,79.85,"21:46:24",206.45,-0.440,1.180,110.57,1.12e+02,2,,1.56e+02,4.70e+00,1,7.60e+00
"1/0362753318.34087",2014-10-30T12:48:42.343,13746,907.00,80.31,80.21,"00:15:30",205.80,-0.440,1.180,110.35,1.15e+02,2,,1.64e+02,4.63e+00,1,7.71e+00
"1/0362753326.04137",2014-10-30T12:48:49.886,13746,899.00,80.67,80.57,"02:53:45",205.11,-0.430,1.180,110.13,1.15e+02,2,,1.64e+02,4.67e+00,1,7.65e+00
"1/0362753333.39723",2014-10-30T12:48:57.429,13746,890.00,81.02,80.92,"05:48:03",204.35,-0.430,1.180,109.91,1.10e+02,2,,1.50e+02,,,
"1/0362753341.09838",2014-10-30T12:49:04.973,13746,881.00,81.37,81.28,"08:58:24",203.52,-0.420,1.180,109.69,1.05e+02,2,,1.37e+02,4.62e+00,1,7.74e+00
"1/0362753348.45424",2014-10-30T12:49:12.516,13746,873.00,81.72,81.63,"12:24:47",202.62,-0.420,1.180,109.47,1.06e+02,2,,1.39e+02,4.92e+00,1,7.27e+00
"1/0362753356.15474",2014-10-30T12:49:20.059,13746,865.00,82.07,81.98,"16:11:48",201.63,-0.410,1.180,109.24,1.06e+02,2,,1.39e+02,,,
"1/0362753363.51060",2014-10-30T12:49:27.602,13746,856.00,82.42,82.34,"20:19:27",200.55,-0.410,1.180,109.02,1.15e+02,2,,1.64e+02,,,
"1/0362753371.21110",2014-10-30T12:49:35.145,13746,848.00,82.77,82.69,"00:54:35",199.35,-0.400,1.180,108.79,1.30e+02,2,,2.10e+02,,,
"1/0362753378.56762",2014-10-30T12:49:42.689,13746,840.00,83.11,83.03,"05:57:14",198.03,-0.400,1.180,108.56,1.32e+02,2,,2.16e+02,,,
"1/0362753386.26812",2014-10-30T12:49:50.232,13746,831.00,83.45,83.38,"11:34:15",196.56,-0.390,1.180,108.33,1.49e+02,2,,2.75e+02,,,
"1/0362753393.62398",2014-10-30T12:49:57.775,13746,823.00,83.79,83.72,"17:50:14",194.92,-0.380,1.170,108.10,1.47e+02,2,,2.68e+02,,,
"1/0362753401.32448",2014-10-30T12:50:05.318,13746,815.00,84.12,84.06,"00:52:03",193.08,-0.380,1.170,107.87,1.56e+02,2,,3.02e+02,,,
"1/0362753409.02498",2014-10-30T12:50:12.861,13746,807.00,84.45,84.39,"08:46:35",191.01,-0.370,1.170,107.64,1.66e+02,2,,3.42e+02,,,
"1/0362753416.38150",2014-10-30T12:50:20.405,13746,799.00,84.77,84.71,"17:40:42",188.68,-0.370,1.170,107.40,1.71e+02,2,,3.63e+02,,,
"1/0362753424.08200",2014-10-30T12:50:27.948,13746,791.00,85.08,85.03,"03:48:10",186.03,-0.360,1.170,107.16,1.75e+02,2,,3.80e+02,,,
"1/0362753431.43786",2014-10-30T12:50:35.491,13746,783.00,85.38,85.33,"15:20:25",183.01,-0.360,1.170,106.92,1.84e+02,2,,4.20e+02,,,
"1/0362753446.49422",2014-10-30T12:50:50.577,13746,768.00,85.94,85.89,"19:29:44",175.64,-0.340,1.170,106.44,1.96e+02,2,,4.76e+02,,,
"1/0362753454.19537",2014-10-30T12:50:58.121,13746,760.00,86.19,86.14,"12:38:54",171.15,-0.340,1.170,106.20,1.88e+02,2,,4.38e+02,,,
"1/0362753461.55123",2014-10-30T12:51:05.664,13746,752.00,86.41,86.37,"08:07:51",166.05,-0.330,1.170,105.96,1.85e+02,2,,4.24e+02,,,
"1/0362753469.25173",2014-10-30T12:51:13.207,13746,745.00,86.60,86.56,"06:05:47",160.30,-0.330,1.170,105.71,1.79e+02,2,,3.97e+02,,,
"1/0362753476.60759",2014-10-30T12:51:20.750,13746,737.00,86.76,86.72,"06:28:05",153.92,-0.320,1.170,105.46,1.83e+02,2,,4.15e+02,,,
"1/0362753484.30809",2014-10-30T12:51:28.293,13746,730.00,86.86,86.83,"09:01:02",146.97,-0.320,1.170,105.22,1.86e+02,2,,4.29e+02,,,
"1/0362753492.00925",2014-10-30T12:51:35.837,13746,722.00,86.92,86.89,"13:07:57",139.61,-0.310,1.170,104.97,1.88e+02,2,,4.38e+02,,,
"1/0362753499.36511",2014-10-30T12:51:43.380,13746,715.00,86.93,86.89,"17:58:24",132.06,-0.310,1.160,104.72,1.95e+02,2,,4.72e+02,,,
"1/0362753507.06561",2014-10-30T12:51:50.923,13746,708.00,86.89,86.85,"22:32:49",124.58,-0.300,1.160,104.46,1.90e+02,2,,4.48e+02,,,
"1/0362753514.42147",2014-10-30T12:51:58.466,13746,701.00,86.79,86.75,"01:56:10",117.41,-0.290,1.160,104.21,2.00e+02,2,,4.96e+02,,,
"1/0362753522.12197",2014-10-30T12:52:06.009,13746,693.00,86.64,86.60,"03:24:57",110.74,-0.290,1.160,103.96,2.10e+02,2,,5.47e+02,,,
"1/0362753529.47849",2014-10-30T12:52:13.553,13746,686.00,86.45,86.41,"02:31:38",104.69,-0.280,1.160,103.70,2.22e+02,2,,6.11e+02,,,
"1/0362753537.17899",2014-10-30T12:52:21.096,13746,679.00,86.23,86.18,"23:11:38",99.28,-0.280,1.160,103.44,2.25e+02,2,,6.28e+02,,,
"1/0362753544.53485",2014-10-30T12:52:28.639,13746,672.00,85.97,85.93,"17:24:57",94.51,-0.270,1.160,103.18,2.30e+02,2,,6.56e+02,,,
"1/0362753552.23535",2014-10-30T12:52:36.182,13746,666.00,85.69,85.64,"09:25:21",90.32,-0.260,1.160,102.92,2.34e+02,2,,6.79e+02,,,
"1/0362753559.59121",2014-10-30T12:52:43.725,13746,659.00,85.39,85.34,"23:24:17",86.66,-0.260,1.160,102.66,2.35e+02,2,,6.85e+02,,,
"1/0362753567.29236",2014-10-30T12:52:51.269,13746,652.00,85.07,85.01,"11:40:05",83.45,-0.250,1.160,102.40,2.38e+02,2,,7.02e+02,,,
"1/0362753574.64822",2014-10-30T12:52:58.812,13746,645.00,84.73,84.67,"22:26:30",80.63,-0.250,1.160,102.13,2.41e+02,2,,7.20e+02,,,
"1/0362753582.34872",2014-10-30T12:53:06.355,13746,639.00,84.39,84.32,"07:55:00",78.15,-0.240,1.160,101.87,2.51e+02,2,,7.81e+02,,,
"1/0362753590.04922",2014-10-30T12:53:13.898,13746,632.00,84.03,83.96,"16:17:02",75.96,-0.240,1.160,101.60,2.44e+02,2,,7.38e+02,,,
"1/0362753597.40574",2014-10-30T12:53:21.442,13746,626.00,83.66,83.59,"23:41:47",74.02,-0.230,1.150,101.33,2.53e+02,2,,7.94e+02,,,
"1/0362753605.10624",2014-10-30T12:53:28.985,13746,619.00,83.28,83.21,"06:18:23",72.29,-0.220,1.150,101.06,2.57e+02,2,,8.19e+02,,,
"1/0362753612.46210",2014-10-30T12:53:36.528,13746,613.00,82.90,82.82,"12:13:44",70.74,-0.220,1.150,100.79,2.57e+02,2,,8.19e+02,,,
"1/0362753620.16260",2014-10-30T12:53:44.071,13746,607.00,82.51,82.43,"17:32:26",69.35,-0.210,1.150,100.52,2.47e+02,2,,7.57e+02,,,
"1/0362753627.51846",2014-10-30T12:53:51.614,13746,601.00,82.12,82.03,"22:21:19",68.09,-0.210,1.150,100.25,2.37e+02,2,,6.97e+02,,,
"1/0362753635.21961",2014-10-30T12:53:59.158,13746,594.00,81.72,81.63,"02:40:25",66.96,-0.200,1.150,99.98,2.42e+02,2,,7.26e+02,,,
"1/0362753642.57547",2014-10-30T12:54:06.701,13746,588.00,81.32,81.22,"06:36:36",65.93,-0.190,1.150,99.70,2.48e+02,2,,7.63e+02,,,
"1/0362753650.27598",2014-10-30T12:54:14.244,13746,582.00,80.91,80.81,"10:12:09",64.99,-0.190,1.150,99.42,2.57e+02,2,,8.19e+02,,,
"1/0362753657.63184",2014-10-30T12:54:21.787,13746,577.00,80.50,80.39,"13:31:40",64.12,-0.180,1.150,99.15,2.53e+02,2,,7.94e+02,,,
"1/0362753665.33234",2014-10-30T12:54:29.330,13746,571.00,80.09,79.97,"16:32:51",63.33,-0.180,1.150,98.87,2.56e+02,2,,8.13e+02,,,
"1/0362753673.03349",2014-10-30T12:54:36.874,13746,565.00,79.67,79.55,"19:17:59",62.61,-0.170,1.150,98.59,2.53e+02,2,,7.94e+02,,,
"1/0362753680.38935",2014-10-30T12:54:44.417,13746,559.00,79.25,79.13,"21:51:39",61.94,-0.170,1.150,98.31,2.57e+02,2,,8.19e+02,,,
"1/0362753688.08985",2014-10-30T12:54:51.960,13746,554.00,78.83,78.70,"00:13:52",61.32,-0.160,1.150,98.03,2.68e+02,2,,8.91e+02,,,
"1/0362753695.44571",2014-10-30T12:54:59.503,13746,548.00,78.40,78.27,"02:26:55",60.74,-0.150,1.140,97.74,2.76e+02,2,,9.45e+02,,,
"1/0362753703.14621",2014-10-30T12:55:07.046,13746,543.00,77.98,77.84,"04:28:30",60.21,-0.150,1.140,97.46,2.81e+02,2,,9.79e+02,,,
"1/0362753710.50273",2014-10-30T12:55:14.590,13746,537.00,77.55,77.41,"06:23:13",59.71,-0.140,1.140,97.17,2.83e+02,2,,9.93e+02,,,
"1/0362753718.20323",2014-10-30T12:55:22.133,13746,532.00,77.12,76.97,"08:08:46",59.25,-0.140,1.140,96.89,2.82e+02,2,,9.86e+02,,,
"1/0362753725.55909",2014-10-30T12:55:29.676,13746,527.00,76.68,76.53,"09:49:44",58.81,-0.130,1.140,96.60,2.81e+02,2,,9.79e+02,,,
"1/0362753733.25959",2014-10-30T12:55:37.219,13746,522.00,76.25,76.09,"11:21:32",58.41,-0.120,1.140,96.31,2.87e+02,2,,1.02e+03,,,
"1/0362753740.61545",2014-10-30T12:55:44.762,13746,517.00,75.81,75.65,"12:48:44",58.03,-0.120,1.140,96.02,2.79e+02,2,,9.65e+02,,,
"1/0362753748.31660",2014-10-30T12:55:52.306,13746,512.00,75.37,75.20,"14:11:22",57.67,-0.110,1.140,95.73,2.89e+02,2,,1.04e+03,,,
"1/0362753756.01710",2014-10-30T12:55:59.849,13746,507.00,74.93,74.76,"15:29:25",57.33,-0.110,1.140,95.44,2.82e+02,2,,9.86e+02,,,
"1/0362753763.37296",2014-10-30T12:56:07.392,13746,502.00,74.49,74.31,"16:40:35",57.02,-0.100,1.140,95.15,3.00e+02,2,,1.12e+03,,,
"1/0362753771.07347",2014-10-30T12:56:14.935,13746,498.00,74.04,73.86,"17:49:27",56.72,-0.090,1.140,94.86,2.86e+02,2,,1.01e+03,,,
"1/0362753778.42933",2014-10-30T12:56:22.478,13746,493.00,73.60,73.41,"18:53:45",56.44,-0.090,1.140,94.56,2.80e+02,2,,9.72e+02,,,
"1/0362753786.13048",2014-10-30T12:56:30.022,13746,488.00,73.15,72.96,"19:55:45",56.17,-0.080,1.130,94.27,3.35e+02,2,,1.39e+03,,,
"1/0362753793.48634",2014-10-30T12:56:37.565,13746,484.00,72.70,72.51,"20:53:10",55.92,-0.080,1.130,93.97,2.90e+02,2,,1.04e+03,,,
"1/0362753801.18684",2014-10-30T12:56:45.108,13746,480.00,72.25,72.05,"21:48:18",55.68,-0.070,1.130,93.67,3.56e+02,2,,1.57e+03,,,
"1/0362753808.54270",2014-10-30T12:56:52.651,13746,475.00,71.80,71.60,"22:41:08",55.45,-0.060,1.130,93.38,3.59e+02,2,,1.60e+03,,,
"1/0362753816.24320",2014-10-30T12:57:00.194,13746,471.00,71.35,71.14,"23:29:23",55.24,-0.060,1.130,93.08,3.36e+02,2,,1.40e+03,,,
"1/0362753823.59972",2014-10-30T12:57:07.738,13746,467.00,70.89,70.68,"00:17:38",55.03,-0.050,1.130,92.78,3.12e+02,2,,1.21e+03,,,
"1/0362753831.30022",2014-10-30T12:57:15.281,13746,463.00,70.44,70.22,"01:01:18",54.84,-0.050,1.130,92.48,3.30e+02,2,,1.35e+03,,,
"1/0362753839.00072",2014-10-30T12:57:22.824,13746,459.00,69.98,69.76,"01:44:58",54.65,-0.040,1.130,92.18,3.53e+02,2,,1.55e+03,,,
"1/0362753846.35658",2014-10-30T12:57:30.367,13746,455.00,69.52,69.30,"02:24:03",54.48,-0.030,1.130,91.88,3.74e+02,2,,1.73e+03,,,
"1/0362753854.05708",2014-10-30T12:57:37.910,13746,452.00,69.06,68.83,"03:03:08",54.31,-0.030,1.130,91.58,3.52e+02,2,,1.54e+03,,,
"1/0362753861.41359",2014-10-30T12:57:45.454,13746,448.00,68.60,68.37,"03:39:55",54.15,-0.020,1.130,91.27,3.33e+02,2,,1.38e+03,,,
"1/0362753869.11409",2014-10-30T12:57:52.997,13746,444.00,68.14,67.90,"04:14:25",54.00,-0.020,1.120,90.97,3.43e+02,2,,1.46e+03,,,
"1/0362753876.46995",2014-10-30T12:58:00.540,13746,441.00,67.68,67.44,"04:48:55",53.85,-0.010,1.120,90.67,3.39e+02,2,,1.43e+03,,,
"1/0362753884.17045",2014-10-30T12:58:08.083,13746,437.00,67.22,66.97,"05:21:08",53.71,-0.000,1.120,90.36,3.56e+02,2,,1.57e+03,,,
"1/0362753891.52632",2014-10-30T12:58:15.626,13746,434.00,66.75,66.50,"05:51:03",53.58,0.000,1.120,90.06,3.40e+02,2,,1.43e+03,,,
"1/0362753899.22747",2014-10-30T12:58:23.170,13746,431.00,66.29,66.03,"06:20:58",53.45,0.010,1.120,89.75,3.29e+02,2,,1.34e+03,,,
"1/0362753906.58333",2014-10-30T12:58:30.713,13746,428.00,65.82,65.56,"06:48:35",53.33,0.010,1.120,89.45,3.39e+02,2,,1.43e+03,,,
"1/0362753914.28383",2014-10-30T12:58:38.256,13746,425.00,65.35,65.09,"07:16:13",53.21,0.020,1.120,89.14,3.36e+02,2,,1.40e+03,,,
"1/0362753921.63969",2014-10-30T12:58:45.799,13746,422.00,64.88,64.62,"07:41:33",53.10,0.030,1.120,88.83,3.38e+02,2,,1.42e+03,,,
"1/0362753929.34019",2014-10-30T12:58:53.342,13746,419.00,64.42,64.14,"08:06:53",52.99,0.030,1.120,88.53,3.48e+02,2,,1.50e+03,,,
"1/0362753937.04135",2014-10-30T12:59:00.886,13746,416.00,63.95,63.67,"08:29:55",52.89,0.040,1.120,88.22,3.59e+02,2,,1.60e+03,,,
"1/0362753944.39721",2014-10-30T12:59:08.429,13746,413.00,63.47,63.20,"08:52:58",52.79,0.040,1.120,87.91,3.68e+02,2,,1.68e+03,,,
"1/0362753952.09771",2014-10-30T12:59:15.972,13746,411.00,63.00,62.72,"09:13:43",52.70,0.050,1.110,87.60,4.01e+02,2,,1.99e+03,,,
"1/0362753959.45357",2014-10-30T12:59:23.515,13746,408.00,62.53,62.25,"09:34:27",52.61,0.060,1.110,87.29,3.95e+02,2,,1.93e+03,,,
"1/0362753967.15407",2014-10-30T12:59:31.058,13746,406.00,62.06,61.77,"09:55:12",52.52,0.060,1.110,86.98,3.92e+02,2,,1.91e+03,,,
"1/0362753974.51058",2014-10-30T12:59:38.602,13746,404.00,61.58,61.29,"10:15:57",52.43,0.070,1.110,86.67,3.91e+02,2,,1.90e+03,,,
"1/0362753982.21108",2014-10-30T12:59:46.145,13746,402.00,61.11,60.81,"10:34:25",52.35,0.070,1.110,86.36,4.08e+02,2,,2.06e+03,,,
"1/0362753989.56694",2014-10-30T12:59:53.688,13746,399.00,60.63,60.33,"10:50:35",52.28,0.080,1.110,86.05,4.24e+02,2,,2.23e+03,,,
"1/0362753997.26744",2014-10-30T13:00:01.231,13746,397.00,60.16,59.86,"11:09:02",52.20,0.090,1.110,85.74,4.21e+02,2,,2.20e+03,,,
"1/0362754004.62330",2014-10-30T13:00:08.774,13746,395.00,59.68,59.38,"11:25:12",52.13,0.090,1.110,85.43,4.53e+02,2,,2.54e+03,,,
"1/0362754012.32446",2014-10-30T13:00:16.318,13746,394.00,59.20,58.90,"11:41:22",52.06,0.100,1.110,85.12,4.67e+02,2,,2.70e+03,,,
"1/0362754020.02496",2014-10-30T13:00:23.861,13746,392.00,58.73,58.42,"11:55:14",52.00,0.100,1.110,84.81,4.70e+02,2,,2.74e+03,,,
"1/0362754027.38082",2014-10-30T13:00:31.404,13746,390.00,58.25,57.93,"12:11:24",51.93,0.110,1.100,84.50,4.79e+02,2,,2.85e+03,,,
"1/0362754035.08132",2014-10-30T13:00:38.947,13746,389.00,57.77,57.45,"12:25:17",51.87,0.120,1.100,84.19,4.77e+02,2,,2.82e+03,,,
"1/0362754042.43718",2014-10-30T13:00:46.490,13746,387.00,57.29,56.97,"12:39:09",51.81,0.120,1.100,83.88,4.95e+02,2,,3.04e+03,,,
"1/0362754050.13834",2014-10-30T13:00:54.034,13746,386.00,56.81,56.49,"12:50:44",51.76,0.130,1.100,83.57,4.95e+02,2,,3.04e+03,,,
"1/0362754057.49420",2014-10-30T13:01:01.577,13746,385.00,56.33,56.01,"13:04:36",51.70,0.130,1.100,83.26,4.95e+02,2,,3.04e+03,,,
"1/0362754065.19470",2014-10-30T13:01:09.120,13746,384.00,55.85,55.52,"13:16:11",51.65,0.140,1.100,82.95,5.09e+02,2,,3.21e+03,,,
"1/0362754072.55056",2014-10-30T13:01:16.663,13746,383.00,55.37,55.04,"13:27:46",51.60,0.150,1.100,82.64,5.07e+02,2,,3.19e+03,,,
"1/0362754080.25106",2014-10-30T13:01:24.206,13746,382.00,54.89,54.56,"13:39:21",51.55,0.150,1.100,82.33,5.06e+02,2,,3.18e+03,,,
"1/0362754087.60757",2014-10-30T13:01:31.750,13746,381.00,54.40,54.07,"13:48:38",51.51,0.160,1.100,82.02,4.99e+02,2,,3.09e+03,,,
"1/0362754095.30807",2014-10-30T13:01:39.293,13746,380.00,53.92,53.59,"14:00:13",51.46,0.160,1.100,81.70,4.72e+02,2,,2.76e+03,,,
"1/0362754103.00857",2014-10-30T13:01:46.836,13746,379.00,53.44,53.10,"14:09:31",51.42,0.170,1.090,81.39,4.79e+02,2,,2.85e+03,,,
"1/0362754110.36443",2014-10-30T13:01:54.379,13746,379.00,52.96,52.62,"14:18:48",51.38,0.180,1.090,81.08,4.72e+02,2,,2.76e+03,,,
"1/0362754118.06493",2014-10-30T13:02:01.922,13746,378.00,52.47,52.14,"14:28:05",51.34,0.180,1.090,80.77,4.75e+02,2,,2.80e+03,,,
"1/0362754125.42145",2014-10-30T13:02:09.466,13746,378.00,51.99,51.65,"14:37:23",51.30,0.190,1.090,80.47,4.98e+02,2,,3.08e+03,,,
"1/0362754133.12195",2014-10-30T13:02:17.009,13746,378.00,51.51,51.17,"14:46:40",51.26,0.190,1.090,80.16,5.22e+02,2,,3.38e+03,,,
"1/0362754140.47781",2014-10-30T13:02:24.552,13746,378.00,51.02,50.68,"14:53:40",51.23,0.200,1.090,79.85,5.38e+02,2,,3.59e+03,,,
"1/0362754148.17831",2014-10-30T13:02:32.095,13746,378.00,50.54,50.20,"15:02:57",51.19,0.210,1.090,79.54,5.29e+02,2,,3.47e+03,,,
"1/0362754155.53483",2014-10-30T13:02:39.639,13746,378.00,50.06,49.71,"15:09:57",51.16,0.210,1.090,79.23,5.52e+02,2,,3.78e+03,,,
"1/0362754163.23533",2014-10-30T13:02:47.182,13746,378.00,49.57,49.23,"15:16:57",51.13,0.220,1.090,78.92,5.52e+02,2,,3.78e+03,,,
"1/0362754170.59119",2014-10-30T13:02:54.725,13746,378.00,49.09,48.74,"15:23:57",51.10,0.220,1.080,78.62,5.87e+02,2,,4.27e+03,,,
"1/0362754178.29169",2014-10-30T13:03:02.268,13746,378.00,48.61,48.26,"15:30:57",51.07,0.230,1.080,78.31,5.58e+02,2,,3.86e+03,,,
"1/0362754185.64755",2014-10-30T13:03:09.811,13746,379.00,48.12,47.77,"15:37:57",51.04,0.230,1.080,78.00,5.39e+02,2,,3.60e+03,,,
"1/0362754193.34870",2014-10-30T13:03:17.355,13746,379.00,47.64,47.29,"15:44:57",51.01,0.240,1.080,77.70,5.12e+02,2,,3.25e+03,,,
"1/0362754201.04920",2014-10-30T13:03:24.898,13746,380.00,47.15,46.81,"15:49:39",50.99,0.250,1.080,77.39,5.24e+02,2,,3.40e+03,,,
"1/0362754208.40506",2014-10-30T13:03:32.441,13746,381.00,46.67,46.32,"15:56:39",50.96,0.250,1.080,77.09,4.63e+02,2,,2.66e+03,,,
"1/0362754216.10556",2014-10-30T13:03:39.984,13746,381.00,46.19,45.84,"16:01:21",50.94,0.260,1.080,76.79,5.00e+02,2,,3.10e+03,,,
"1/0362754223.46142",2014-10-30T13:03:47.527,13746,382.00,45.70,45.35,"16:06:03",50.92,0.260,1.080,76.48,4.77e+02,2,,2.82e+03,,,
"1/0362754231.16258",2014-10-30T13:03:55.071,13746,383.00,45.22,44.87,"16:13:03",50.89,0.270,1.080,76.18,5.00e+02,2,,3.10e+03,,,
"1/0362754238.51844",2014-10-30T13:04:02.614,13746,384.00,44.74,44.39,"16:17:46",50.87,0.280,1.080,75.88,5.09e+02,2,,3.21e+03,,,